This is the latest recevied weather packets stored in our database for station/object p43g-13. If no packets are shown the sender has not sent any weather packets the latest 10 day(s).
| Time | Temp. | Humidity | Pressure | Rain* | Wind** | Luminosity | Snow |
|---|---|---|---|---|---|---|---|
| 1787755539 | 31.11° C | 75% | 1012.6 hPa | 0 mm | - | 691 W/m² | - |
| 1787755239 | 31.67° C | 75% | 1012.8 hPa | 0 mm | - | 847 W/m² | - |
| 1787754939 | 31.67° C | 75% | 1012.8 hPa | 0 mm | - | 324 W/m² | - |
| 1787754640 | 31.67° C | 74% | 1012.7 hPa | 0 mm | - | 808 W/m² | - |
| 1787754338 | 31.67° C | 75% | 1012.6 hPa | 0 mm | - | 508 W/m² | - |
| 1787754043 | 31.11° C | 76% | 1013.1 hPa | 0 mm | - | 792 W/m² | - |
| 1787753737 | 30.56° C | 77% | 1013.1 hPa | 0 mm | - | 761 W/m² | - |
| 1787753437 | 31.11° C | 77% | 1012.7 hPa | 0 mm | - | 755 W/m² | - |
| 1787753137 | 30.56° C | 77% | 1012.9 hPa | 0 mm | - | 766 W/m² | - |
| 1787752837 | 30.56° C | 78% | 1012.9 hPa | 0 mm | - | 324 W/m² | - |
| 1787752537 | 30.56° C | 78% | 1012.8 hPa | 0 mm | - | 269 W/m² | - |
| 1787752236 | 30.56° C | 78% | 1012.8 hPa | 0 mm | - | 628 W/m² | - |
| 1787751936 | 30.56° C | 78% | 1012.6 hPa | 0 mm | - | 260 W/m² | - |
| 1787751637 | 30.56° C | 78% | 1012.7 hPa | 0 mm | - | 635 W/m² | - |
| 1787751337 | 31.11° C | 78% | 1012.7 hPa | 0 mm | - | 398 W/m² | - |
| 1787751037 | 30.56° C | 78% | 1012.6 hPa | 0 mm | - | 567 W/m² | - |
| 1787750737 | 30.56° C | 78% | 1012.4 hPa | 0 mm | - | 454 W/m² | - |
| 1787750436 | 31.11° C | 78% | 1012.6 hPa | 0 mm | - | 541 W/m² | - |
| 1787750137 | 30.56° C | 79% | 1012.6 hPa | 0 mm | - | 547 W/m² | - |
| 1787749837 | 30° C | 81% | 1012.6 hPa | 0 mm | - | 550 W/m² | - |
| 1787749537 | 29.44° C | 83% | 1012.7 hPa | 0 mm | - | 278 W/m² | - |
| 1787749225 | 29.44° C | 84% | 1012.6 hPa | 0 mm | - | 501 W/m² | - |
| 1787748925 | 29.44° C | 84% | 1012.6 hPa | 0.25 mm | - | 187 W/m² | - |
| 1787748625 | 30° C | 83% | 1012.6 hPa | 0.25 mm | - | 83 W/m² | - |
| 1787748313 | 29.44° C | 83% | 1012.7 hPa | 0.25 mm | - | 365 W/m² | - |
* Rain latest hour (hover to see other rain measurements)
** Current wind speed in m/s (hover to see current wind gust speed)